Location: Cerezo de Arriba
(41.2389°N, 3.5585°W)
Time: 04:43:27
(UTC+00:00)

Cosmos 1076 Rocket - Pass Details

Date: 19 May 2025
Orbit: 582 x 604 km, 82.5° (Epoch: 23 June)

Event Time Altitude Azimuth Distance (km) Brightness Sun altitude
Rises 20:30:20 0° 357° (N) 2,866 7.6 -10.3°
Reaches altitude 10° 20:32:37 10° 2° (N) 1,959 6.7 -10.7°
Maximum altitude 20:36:51 52° 79° (E) 758 3.8 -11.3°
Enters shadow 20:40:17 15° 153° (SSE) 1,651 5.2 -11.8°
